TimeEDT,TemperatureF,Dew PointF,Humidity,Sea Level PressureIn,VisibilityMPH,Wind Direction,Wind SpeedMPH,Gust SpeedMPH,PrecipitationIn,Events,Conditions,WindDirDegrees,DateUTC
12:53 AM,73.0,59.0,61,29.94,10.0,SSE,9.2,-,N/A,,Mostly Cloudy,150,2013-06-10 04:53:00
1:53 AM,73.0,60.1,64,29.92,10.0,SSE,6.9,-,N/A,,Partly Cloudy,160,2013-06-10 05:53:00
2:53 AM,72.0,61.0,68,29.91,10.0,SSE,8.1,-,N/A,,Scattered Clouds,160,2013-06-10 06:53:00
3:53 AM,70.0,63.0,78,29.90,10.0,SSE,6.9,-,N/A,,Overcast,150,2013-06-10 07:53:00
4:53 AM,70.0,63.0,78,29.89,10.0,SSE,6.9,-,N/A,,Overcast,150,2013-06-10 08:53:00
5:53 AM,68.0,64.0,87,29.88,8.0,SE,5.8,-,0.00,Rain,Light Rain,140,2013-06-10 09:53:00
6:53 AM,68.0,64.9,90,29.87,4.0,SE,5.8,-,0.00,Rain,Light Rain,130,2013-06-10 10:53:00
7:53 AM,68.0,64.9,90,29.86,5.0,SE,8.1,-,0.00,,Overcast,140,2013-06-10 11:53:00
8:53 AM,68.0,66.0,93,29.84,3.0,SE,3.5,-,0.00,Rain,Light Rain,130,2013-06-10 12:53:00
9:25 AM,69.8,66.2,88,29.85,6.0,SE,4.6,-,0.00,Rain,Light Rain,140,2013-06-10 13:25:00
9:48 AM,69.8,66.2,88,29.84,6.0,SE,6.9,-,0.00,,Overcast,140,2013-06-10 13:48:00
9:53 AM,69.1,66.0,90,29.83,5.0,SSE,5.8,-,0.00,Rain,Light Rain,150,2013-06-10 13:53:00
10:31 AM,69.8,66.2,88,29.82,3.0,SSE,3.5,-,0.00,,Overcast,150,2013-06-10 14:31:00
10:53 AM,70.0,68.0,93,29.81,6.0,SSE,6.9,-,0.00,Rain,Light Rain,150,2013-06-10 14:53:00
11:17 AM,71.6,66.2,83,29.81,10.0,SSE,8.1,-,0.00,,Overcast,150,2013-06-10 15:17:00
11:53 AM,71.1,68.0,90,29.80,6.0,South,6.9,-,0.00,Rain,Light Rain,170,2013-06-10 15:53:00
12:24 PM,69.8,68.0,94,29.80,5.0,SSE,4.6,-,0.00,Rain,Light Rain,160,2013-06-10 16:24:00
12:38 PM,71.6,68.0,88,29.79,5.0,Calm,Calm,-,0.00,Rain,Light Rain,0,2013-06-10 16:38:00
12:53 PM,70.0,68.0,93,29.78,7.0,SSE,3.5,-,0.00,Rain,Light Rain,150,2013-06-10 16:53:00
1:12 PM,71.6,68.0,88,29.77,8.0,SSE,3.5,-,0.00,Rain,Light Rain,150,2013-06-10 17:12:00
1:53 PM,73.0,68.0,84,29.75,8.0,Variable,3.5,-,0.00,Rain,Light Rain,0,2013-06-10 17:53:00
2:19 PM,73.4,68.0,83,29.75,10.0,SSE,6.9,-,0.00,,Mostly Cloudy,160,2013-06-10 18:19:00
2:49 PM,69.8,66.2,88,29.75,6.0,NNW,6.9,-,0.00,,Overcast,340,2013-06-10 18:49:00
2:53 PM,69.1,66.0,90,29.75,3.0,North,8.1,-,0.00,,Overcast,350,2013-06-10 18:53:00
2:59 PM,66.2,66.2,100,29.75,3.0,West,8.1,-,N/A,,Overcast,280,2013-06-10 18:59:00
3:48 PM,69.8,69.8,100,29.74,3.0,West,4.6,-,N/A,Rain,Light Rain,280,2013-06-10 19:48:00
3:53 PM,69.1,68.0,96,29.73,3.0,WNW,3.5,-,N/A,,Overcast,290,2013-06-10 19:53:00
4:15 PM,66.2,64.4,94,29.76,2.0,West,10.4,-,N/A,Rain,Light Rain,280,2013-06-10 20:15:00
4:53 PM,66.0,64.9,96,29.76,2.0,West,6.9,-,N/A,Rain,Light Rain,260,2013-06-10 20:53:00
5:00 PM,66.2,64.4,94,29.76,10.0,West,6.9,-,N/A,Rain,Light Rain,270,2013-06-10 21:00:00
5:53 PM,66.0,64.9,96,29.75,8.0,West,6.9,-,N/A,Rain,Light Rain,260,2013-06-10 21:53:00
6:53 PM,66.0,64.0,93,29.75,6.0,West,5.8,-,N/A,,Clear,260,2013-06-10 22:53:00
7:53 PM,66.0,64.0,93,29.74,10.0,WSW,4.6,-,N/A,,Partly Cloudy,250,2013-06-10 23:53:00
8:53 PM,64.0,62.1,93,29.75,10.0,Calm,Calm,-,N/A,,Clear,0,2013-06-11 00:53:00
9:53 PM,64.9,62.1,90,29.75,10.0,Calm,Calm,-,N/A,,Partly Cloudy,0,2013-06-11 01:53:00
10:53 PM,64.9,63.0,93,29.76,9.0,NNE,3.5,-,N/A,,Overcast,30,2013-06-11 02:53:00
11:53 PM,64.0,63.0,96,29.76,10.0,SSW,3.5,-,N/A,,Mostly Cloudy,200,2013-06-11 03:53:00